Flag Weather past 2 weeks in Iasi, Romania

Now
36 °F

Overcast.


Feels Like: 32 °F
Forecast: 34 / 41 °F
Wind: 5 mph from Northwest

Location: Iasi Airport

Current Time: Nov 22, 2014 at 7:01:38 PM

Latest Report: Nov 22, 2014 at 6:30 PM


Visibility: N/A

Pressure: 30.36 "Hg

Humidity: 81%

Dew point: 30 °F

Location of IasiLocation

Historic Weather in Iasi — Graph

°F

Iasi temperature yesterday

Maximum temperature yesterday: 34 °F (at 12:00 AM)
Minimum temperature yesterday: 32 °F (at 5:30 AM)
Average temperature yesterday: 33 °F

Past Weeks' High & Low Weather Summary

 TemperatureHumidityPressure
High61 °F (Nov 9, 12:00 PM)100% (Nov 8, 12:00 AM)30.36 "Hg (Nov 8, 12:00 AM)
Low32 °F (Nov 21, 5:30 AM)52% (Nov 10, 3:00 PM)30.01 "Hg (Nov 20, 1:00 AM)
Average43 °F91%30.14 "Hg
* Reported Nov 7 6:00 PM — Nov 22 6:00 PM, Iasi, Weather by CustomWeather, © 2014

Note: Actual official high and low records may vary slightly from our data, if they occured in-between our weather recording intervals... More about our weather records

Advertising

Iasi weather history for previous 24 hours

 ConditionsComfort  
Time TempWeatherWind HumidityBarometerVisibility
6:00 PM
Nov 22
36 °FLight rain. Overcast.5 mph81%30.36 "HgN/A
5:30 PM36 °FOvercast.5 mph81%30.36 "HgN/A
5:00 PM36 °FOvercast.5 mph81%30.33 "HgN/A
4:00 PM36 °FOvercast.5 mph75%30.33 "HgN/A
3:30 PM36 °FPartly sunny.5 mph75%30.33 "HgN/A
3:00 PM37 °FPartly sunny.7 mph70%30.33 "HgN/A
2:00 PM37 °FLight rain. Scattered clouds.7 mph70%30.30 "HgN/A
1:30 PM37 °FScattered clouds.9 mph70%30.30 "HgN/A
1:00 PM37 °FScattered clouds.9 mph70%30.30 "HgN/A
12:30 PM37 °FScattered clouds.7 mph75%30.30 "HgN/A
11:30 AM36 °FOvercast.5 mph87%30.33 "HgN/A
11:00 AM36 °FPartly sunny.5 mph87%30.33 "HgN/A
10:30 AM36 °FOvercast.5 mph87%30.30 "HgN/A
10:00 AM36 °FPartly sunny.5 mph87%30.30 "HgN/A
9:30 AM36 °FPartly sunny.5 mph87%30.30 "HgN/A
9:00 AM36 °FOvercast.5 mph87%30.30 "HgN/A
8:00 AM34 °FOvercast.5 mph93%30.30 "HgN/A
7:30 AM34 °FOvercast.5 mph93%30.30 "HgN/A
7:00 AM34 °FOvercast.5 mph93%30.30 "HgN/A
6:30 AM34 °FOvercast.5 mph93%30.27 "HgN/A
6:00 AM34 °FOvercast.5 mph93%30.27 "HgN/A
5:30 AM34 °FOvercast.5 mph93%30.27 "HgN/A
5:00 AM34 °FOvercast.5 mph93%30.27 "HgN/A
4:00 AM34 °FOvercast.5 mph93%30.27 "HgN/A
3:00 AM34 °FOvercast.7 mph93%30.27 "HgN/A
2:00 AM34 °FOvercast.7 mph93%30.27 "HgN/A
1:00 AM34 °FOvercast.5 mph93%30.27 "HgN/A
12:00 AM34 °FOvercast.7 mph93%30.27 "HgN/A
11:00 PM
Nov 21
34 °FOvercast.7 mph93%30.27 "HgN/A
10:00 PM34 °FLight rain. Overcast.5 mph93%30.27 "HgN/A
9:00 PM32 °FLight snow. Overcast.7 mph100%30.27 "Hg6 mi
8:30 PM34 °FLight snow. Overcast.7 mph93%30.24 "HgN/A
8:00 PM34 °FLight snow. Passing clouds.7 mph93%30.24 "Hg5 mi
7:30 PM34 °FLight snow. Overcast.9 mph93%30.24 "Hg5 mi
7:00 PM32 °FLight snow. Overcast.5 mph100%30.24 "Hg4 mi
Weather by CustomWeather, © 2014

See weather overviewHow to use our weather pages